| time (UTC) | temp F | wind direction | speed MPH | gust MPH | rain 1hr in | rain 24hr in | rain mn in | humidity % | barometer mb |
| 20260508202732 | 54 | 42 | 0.0 | 2.0 | 0.00 | 0.17 | 0.17 | 54 | 1007.4 |
| 20260508202230 | 56 | 60 | 2.0 | 3.0 | 0.00 | 0.17 | 0.17 | 52 | 1007.3 |
| 20260508201727 | 56 | 49 | 0.0 | 3.0 | 0.00 | 0.17 | 0.17 | 51 | 1007.3 |
| 20260508201557 | 57 | 226 | 1.0 | 3.0 | 0.00 | 0.25 | 0.17 | 54 | 1006.4 |
| 20260508201223 | 59 | 69 | 0.0 | 2.0 | 0.00 | 0.17 | 0.17 | 52 | 1007.3 |
| 20260508200720 | 59 | 54 | 2.0 | 4.0 | 0.00 | 0.17 | 0.17 | 49 | 1007.4 |
| 20260508200217 | 57 | 256 | 3.0 | 3.0 | 0.00 | 0.17 | 0.17 | 55 | 1007.3 |
| 20260508200056 | 56 | 104 | 1.0 | 3.0 | 0.00 | 0.25 | 0.17 | 55 | 1006.5 |
| 20260508195713 | 57 | 66 | 2.0 | 4.0 | 0.00 | 0.17 | 0.17 | 51 | 1007.5 |
| 20260508195209 | 56 | 32 | 1.0 | 5.0 | 0.00 | 0.17 | 0.17 | 54 | 1007.8 |
| 20260508194706 | 56 | 247 | 2.0 | 4.0 | 0.00 | 0.17 | 0.17 | 63 | 1007.7 |
| 20260508194203 | 56 | 69 | 2.0 | 2.0 | 0.00 | 0.17 | 0.17 | 62 | 1007.7 |
| 20260508193700 | 55 | 49 | 0.0 | 2.0 | 0.00 | 0.17 | 0.17 | 58 | 1007.8 |
| 20260508193157 | 54 | 264 | 0.0 | 4.0 | 0.00 | 0.17 | 0.17 | 62 | 1007.7 |
| 20260508193057 | 55 | 133 | 1.0 | 3.0 | 0.00 | 0.25 | 0.17 | 64 | 1007.0 |
| 20260508192653 | 55 | 224 | 2.0 | 2.0 | 0.00 | 0.17 | 0.17 | 62 | 1007.9 |
| 20260508192150 | 55 | 272 | 1.0 | 4.0 | 0.00 | 0.17 | 0.17 | 63 | 1007.7 |
| 20260508191648 | 56 | 242 | 0.0 | 4.0 | 0.00 | 0.17 | 0.17 | 59 | 1007.9 |
| 20260508191556 | 55 | 217 | 1.0 | 3.0 | 0.00 | 0.25 | 0.17 | 60 | 1007.1 |
| 20260508191144 | 56 | 55 | 4.0 | 4.0 | 0.00 | 0.17 | 0.17 | 60 | 1008.1 |
| 20260508190642 | 56 | 54 | 1.0 | 4.0 | 0.00 | 0.17 | 0.17 | 59 | 1008.0 |
| 20260508190138 | 56 | 229 | 2.0 | 2.0 | 0.00 | 0.17 | 0.17 | 62 | 1007.9 |
| 20260508185635 | 55 | 220 | 2.0 | 2.0 | 0.00 | 0.17 | 0.17 | 70 | 1008.0 |
| 20260508185132 | 54 | 95 | 2.0 | 4.0 | 0.00 | 0.17 | 0.17 | 64 | 1008.3 |
| 20260508184629 | 53 | 158 | 0.0 | 2.0 | 0.00 | 0.17 | 0.17 | 71 | 1008.2 |
| 20260508184556 | 52 | 191 | 1.0 | 5.0 | 0.00 | 0.25 | 0.17 | 76 | 1007.6 |
| 20260508184126 | 53 | 70 | 2.0 | 3.0 | 0.00 | 0.17 | 0.17 | 76 | 1008.4 |
| 20260508183623 | 52 | 229 | 5.0 | 5.0 | 0.00 | 0.17 | 0.17 | 74 | 1008.6 |
| 20260508183119 | 51 | 80 | 2.0 | 2.0 | 0.00 | 0.17 | 0.17 | 75 | 1008.4 |
| 20260508183056 | 50 | 152 | 0.0 | 2.0 | 0.00 | 0.25 | 0.17 | 83 | 1007.7 |
| 20260508182615 | 49 | 52 | 2.0 | 2.0 | 0.02 | 0.17 | 0.17 | 84 | 1008.4 |
| 20260508182112 | 49 | 249 | 0.0 | 1.0 | 0.05 | 0.17 | 0.17 | 81 | 1008.7 |
| 20260508181613 | 49 | 75 | 3.0 | 3.0 | 0.02 | 0.17 | 0.17 | 76 | 1008.7 |
| 20260508181111 | 50 | 57 | 4.0 | 4.0 | 0.00 | 0.16 | 0.16 | 77 | 1008.6 |
| 20260508180607 | 51 | 63 | 0.0 | 5.0 | 0.00 | 0.16 | 0.16 | 76 | 1008.7 |
| 20260508180103 | 53 | 295 | 3.0 | 4.0 | 0.00 | 0.16 | 0.16 | 78 | 1008.6 |
| 20260508180056 | 52 | 239 | 1.0 | 3.0 | 0.01 | 0.25 | 0.17 | 84 | 1007.8 |
| 20260508175600 | 53 | 301 | 0.0 | 3.0 | 0.00 | 0.16 | 0.16 | 82 | 1008.7 |
| 20260508175058 | 52 | 92 | 4.0 | 4.0 | 0.00 | 0.16 | 0.16 | 84 | 1009.0 |
| 20260508174555 | 51 | 236 | 2.0 | 3.0 | 0.00 | 0.16 | 0.16 | 86 | 1008.7 |
| 20260508174052 | 50 | 295 | 0.0 | 1.0 | 0.00 | 0.16 | 0.16 | 91 | 1008.8 |
| 20260508173549 | 49 | 227 | 0.0 | 2.0 | 0.00 | 0.16 | 0.16 | 92 | 1008.6 |
| 20260508173044 | 47 | 210 | 1.0 | 2.0 | 0.00 | 0.16 | 0.16 | 90 | 1008.9 |
| 20260508172542 | 46 | 36 | 1.0 | 2.0 | 0.00 | 0.16 | 0.16 | 91 | 1009.0 |
| 20260508172038 | 46 | 76 | 0.0 | 3.0 | 0.00 | 0.16 | 0.16 | 91 | 1009.0 |
| 20260508171558 | 45 | 187 | 1.0 | 2.0 | 0.07 | 0.25 | 0.17 | 93 | 1008.3 |
| 20260508171535 | 46 | 75 | 0.0 | 2.0 | 0.02 | 0.16 | 0.16 | 92 | 1009.1 |
| 20260508171031 | 45 | 68 | 1.0 | 2.0 | 0.02 | 0.16 | 0.16 | 92 | 1008.9 |
| 20260508170529 | 44 | 62 | 2.0 | 2.0 | 0.00 | 0.16 | 0.16 | 92 | 1008.9 |
| 20260508170056 | 44 | 217 | 0.0 | 3.0 | 0.06 | 0.24 | 0.16 | 91 | 1008.2 |
| 20260508170026 | 44 | 49 | 2.0 | 2.0 | 0.00 | 0.16 | 0.16 | 91 | 1008.8 |
| 20260508165523 | 44 | 64 | 1.0 | 2.0 | 0.07 | 0.16 | 0.16 | 91 | 1008.8 |
| 20260508165020 | 44 | 261 | 0.0 | 4.0 | 0.19 | 0.16 | 0.16 | 91 | 1009.0 |
| 20260508164556 | 44 | 232 | 2.0 | 9.0 | 0.05 | 0.23 | 0.15 | 87 | 1008.5 |
| 20260508164516 | 43 | 55 | 2.0 | 5.0 | 0.14 | 0.14 | 0.14 | 89 | 1009.2 |
| 20260508164013 | 44 | 283 | 0.0 | 4.0 | 0.05 | 0.12 | 0.12 | 89 | 1009.3 |
| 20260508163511 | 44 | 53 | 1.0 | 2.0 | 0.07 | 0.12 | 0.12 | 88 | 1009.1 |
| 20260508163057 | 46 | 196 | 0.0 | 5.0 | 0.02 | 0.20 | 0.12 | 84 | 1008.2 |
| 20260508163007 | 44 | 39 | 2.0 | 2.0 | 0.05 | 0.11 | 0.11 | 86 | 1008.9 |
| 20260508162504 | 45 | 25 | 0.0 | 2.0 | 0.09 | 0.11 | 0.11 | 83 | 1008.8 |
| 20260508162001 | 45 | 50 | 2.0 | 5.0 | 0.12 | 0.11 | 0.11 | 80 | 1008.9 |
| 20260508161557 | 48 | 53 | 1.0 | 5.0 | 0.00 | 0.18 | 0.10 | 74 | 1008.1 |
| 20260508161458 | 47 | 84 | 4.0 | 5.0 | 0.00 | 0.09 | 0.09 | 75 | 1009.0 |
| 20260508160955 | 48 | 77 | 2.0 | 4.0 | 0.00 | 0.09 | 0.09 | 74 | 1008.5 |
| 20260508160454 | 49 | 58 | 3.0 | 4.0 | 0.00 | 0.09 | 0.09 | 73 | 1008.2 |
| 20260508160055 | 49 | 134 | 0.0 | 1.0 | 0.00 | 0.18 | 0.10 | 75 | 1007.2 |
| 20260508155950 | 49 | 59 | 2.0 | 3.0 | 0.00 | 0.09 | 0.09 | 73 | 1008.1 |
| 20260508155447 | 49 | 52 | 2.0 | 4.0 | 0.00 | 0.09 | 0.09 | 70 | 1008.3 |
| 20260508154944 | 50 | 56 | 2.0 | 3.0 | 0.00 | 0.09 | 0.09 | 71 | 1008.1 |
| 20260508154556 | 49 | 134 | 0.0 | 2.0 | 0.00 | 0.18 | 0.10 | 76 | 1007.3 |
| 20260508154442 | 49 | 64 | 2.0 | 2.0 | 0.00 | 0.09 | 0.09 | 73 | 1008.0 |
| 20260508153938 | 49 | 70 | 2.0 | 3.0 | 0.00 | 0.09 | 0.09 | 70 | 1008.2 |
| 20260508153435 | 49 | 60 | 0.0 | 3.0 | 0.00 | 0.09 | 0.09 | 73 | 1008.3 |
| 20260508153057 | 48 | 233 | 0.0 | 1.0 | 0.00 | 0.18 | 0.10 | 80 | 1007.6 |
| 20260508152931 | 48 | 44 | 0.0 | 2.0 | 0.00 | 0.09 | 0.09 | 77 | 1008.5 |
| 20260508152428 | 47 | 73 | 2.0 | 2.0 | 0.00 | 0.09 | 0.09 | 75 | 1008.4 |
| 20260508151924 | 47 | 65 | 0.0 | 2.0 | 0.00 | 0.09 | 0.09 | 72 | 1008.4 |
| 20260508151556 | 47 | 233 | 0.0 | 5.0 | 0.00 | 0.18 | 0.10 | 75 | 1007.6 |
| 20260508151421 | 47 | 47 | 0.0 | 2.0 | 0.00 | 0.09 | 0.09 | 72 | 1008.5 |
| 20260508150917 | 47 | 59 | 2.0 | 3.0 | 0.00 | 0.09 | 0.09 | 75 | 1008.3 |
| 20260508150414 | 47 | 226 | 2.0 | 2.0 | 0.00 | 0.09 | 0.09 | 79 | 1008.4 |
| 20260508150056 | 46 | 233 | 0.0 | 3.0 | 0.00 | 0.18 | 0.10 | 80 | 1007.6 |
| 20260508145910 | 47 | 75 | 2.0 | 3.0 | 0.00 | 0.09 | 0.09 | 77 | 1008.2 |
| 20260508145407 | 47 | 242 | 0.0 | 2.0 | 0.00 | 0.09 | 0.09 | 82 | 1008.6 |
| 20260508144904 | 46 | 64 | 2.0 | 2.0 | 0.00 | 0.09 | 0.09 | 80 | 1008.7 |
| 20260508144556 | 45 | 81 | 0.0 | 2.0 | 0.01 | 0.18 | 0.10 | 84 | 1007.7 |
| 20260508144402 | 45 | 53 | 2.0 | 2.0 | 0.00 | 0.09 | 0.09 | 81 | 1008.6 |
| 20260508143859 | 45 | 67 | 2.0 | 2.0 | 0.00 | 0.09 | 0.09 | 84 | 1008.5 |
| 20260508143356 | 45 | 61 | 2.0 | 3.0 | 0.00 | 0.09 | 0.09 | 85 | 1008.6 |
| 20260508143057 | 44 | 216 | 0.0 | 2.0 | 0.01 | 0.18 | 0.10 | 93 | 1007.8 |
| 20260508142852 | 45 | 49 | 2.0 | 3.0 | 0.00 | 0.09 | 0.09 | 88 | 1008.6 |
| 20260508142349 | 45 | 65 | 2.0 | 3.0 | 0.00 | 0.09 | 0.09 | 88 | 1008.8 |
| 20260508141846 | 44 | 50 | 2.0 | 2.0 | 0.00 | 0.09 | 0.09 | 89 | 1008.7 |
| 20260508141556 | 43 | 207 | 0.0 | 1.0 | 0.01 | 0.18 | 0.10 | 95 | 1007.7 |
| 20260508141343 | 44 | 47 | 1.0 | 2.0 | 0.00 | 0.09 | 0.09 | 93 | 1008.5 |
| 20260508140840 | 43 | 44 | 1.0 | 2.0 | 0.00 | 0.09 | 0.09 | 94 | 1008.9 |
| 20260508140337 | 42 | 55 | 2.0 | 2.0 | 0.00 | 0.09 | 0.09 | 94 | 1008.8 |
| 20260508140056 | 42 | 224 | 0.0 | 1.0 | 0.01 | 0.18 | 0.10 | 95 | 1008.1 |
| 20260508135833 | 42 | 58 | 2.0 | 2.0 | 0.00 | 0.09 | 0.09 | 95 | 1008.9 |
| 20260508135329 | 42 | 64 | 2.0 | 3.0 | 0.00 | 0.09 | 0.09 | 95 | 1008.9 |
| 20260508134825 | 41 | 57 | 2.0 | 2.0 | 0.00 | 0.09 | 0.09 | 95 | 1009.0 |
| 20260508134557 | 41 | 246 | 0.0 | 1.0 | 0.00 | 0.17 | 0.09 | 95 | 1008.3 |
| 20260508134322 | 41 | 57 | 2.0 | 2.0 | 0.00 | 0.09 | 0.09 | 94 | 1009.0 |
| 20260508133819 | 41 | 66 | 0.0 | 2.0 | 0.00 | 0.09 | 0.09 | 95 | 1009.2 |
| 20260508133317 | 41 | 72 | 2.0 | 3.0 | 0.00 | 0.09 | 0.09 | 95 | 1009.1 |
| 20260508133057 | 40 | 246 | 0.0 | 1.0 | 0.00 | 0.17 | 0.09 | 95 | 1008.5 |
| 20260508132814 | 40 | 73 | 1.0 | 2.0 | 0.00 | 0.09 | 0.09 | 95 | 1009.3 |
| 20260508132312 | 40 | 58 | 2.0 | 2.0 | 0.00 | 0.09 | 0.09 | 94 | 1009.5 |
| 20260508131808 | 40 | 72 | 0.0 | 2.0 | 0.00 | 0.09 | 0.09 | 94 | 1009.1 |
| 20260508131556 | 40 | 246 | 0.0 | 2.0 | 0.00 | 0.17 | 0.09 | 94 | 1008.7 |
| 20260508131303 | 40 | 66 | 0.0 | 2.0 | 0.00 | 0.09 | 0.09 | 94 | 1009.4 |
| 20260508130800 | 40 | 48 | 1.0 | 1.0 | 0.00 | 0.09 | 0.09 | 94 | 1009.3 |
| 20260508130258 | 40 | 48 | 1.0 | 2.0 | 0.00 | 0.09 | 0.09 | 94 | 1009.1 |
| 20260508130056 | 40 | 246 | 1.0 | 2.0 | 0.00 | 0.17 | 0.09 | 94 | 1008.4 |
| 20260508125753 | 40 | 224 | 0.0 | 3.0 | 0.00 | 0.09 | 0.09 | 93 | 1009.3 |
| 20260508125249 | 40 | 49 | 0.0 | 2.0 | 0.00 | 0.09 | 0.09 | 94 | 1008.9 |
| 20260508124749 | 40 | 278 | 0.0 | 2.0 | 0.00 | 0.09 | 0.09 | 94 | 1009.2 |
| 20260508124556 | 39 | 290 | 0.0 | 2.0 | 0.00 | 0.17 | 0.09 | 95 | 1008.5 |
| 20260508124245 | 39 | 58 | 2.0 | 2.0 | 0.00 | 0.09 | 0.09 | 94 | 1009.1 |
| 20260508123743 | 39 | 58 | 2.0 | 4.0 | 0.00 | 0.09 | 0.09 | 94 | 1009.0 |
| 20260508123241 | 39 | 57 | 2.0 | 3.0 | 0.00 | 0.09 | 0.09 | 95 | 1009.1 |
| 20260508123056 | 39 | 64 | 0.0 | 2.0 | 0.00 | 0.17 | 0.09 | 95 | 1008.4 |
| 20260508122737 | 39 | 58 | 0.0 | 2.0 | 0.00 | 0.09 | 0.09 | 95 | 1009.2 |
| 20260508122234 | 39 | 44 | 3.0 | 3.0 | 0.00 | 0.09 | 0.09 | 95 | 1009.2 |
| 20260508121731 | 39 | 48 | 2.0 | 3.0 | 0.00 | 0.09 | 0.09 | 96 | 1009.3 |
| 20260508121556 | 38 | 77 | 0.0 | 2.0 | 0.00 | 0.17 | 0.09 | 95 | 1008.6 |
| 20260508121230 | 38 | 56 | 1.0 | 2.0 | 0.00 | 0.09 | 0.09 | 96 | 1009.1 |
| 20260508120726 | 38 | 63 | 3.0 | 3.0 | 0.00 | 0.09 | 0.09 | 96 | 1009.3 |
| 20260508120225 | 38 | 61 | 2.0 | 3.0 | 0.00 | 0.09 | 0.09 | 96 | 1009.2 |
| 20260508120056 | 38 | 127 | 1.0 | 2.0 | 0.00 | 0.17 | 0.09 | 95 | 1008.2 |
| 20260508115722 | 38 | 68 | 2.0 | 3.0 | 0.00 | 0.09 | 0.09 | 96 | 1009.0 |
| 20260508115219 | 37 | 46 | 1.0 | 2.0 | 0.00 | 0.09 | 0.09 | 96 | 1009.0 |
| 20260508114715 | 37 | 48 | 0.0 | 3.0 | 0.00 | 0.09 | 0.09 | 97 | 1009.2 |
| 20260508114557 | 38 | 164 | 0.0 | 1.0 | 0.00 | 0.17 | 0.09 | 96 | 1008.2 |
| 20260508114212 | 37 | 48 | 2.0 | 3.0 | 0.00 | 0.09 | 0.09 | 97 | 1009.0 |
| 20260508113709 | 37 | 42 | 2.0 | 3.0 | 0.00 | 0.09 | 0.09 | 97 | 1009.0 |
| 20260508113208 | 37 | 65 | 2.0 | 2.0 | 0.00 | 0.09 | 0.09 | 97 | 1009.2 |
| 20260508112703 | 37 | 59 | 2.0 | 2.0 | 0.00 | 0.09 | 0.09 | 97 | 1009.0 |
| 20260508112200 | 37 | 54 | 1.0 | 2.0 | 0.00 | 0.09 | 0.09 | 97 | 1009.5 |
| 20260508111657 | 36 | 57 | 2.0 | 2.0 | 0.00 | 0.09 | 0.09 | 97 | 1009.3 |
| 20260508111154 | 36 | 42 | 0.0 | 2.0 | 0.00 | 0.09 | 0.09 | 97 | 1009.2 |
| 20260508110652 | 36 | 52 | 2.0 | 2.0 | 0.00 | 0.09 | 0.09 | 97 | 1009.2 |
| 20260508110148 | 36 | 57 | 2.0 | 2.0 | 0.00 | 0.09 | 0.09 | 97 | 1009.2 |
| 20260508110057 | 37 | 164 | 0.0 | 1.0 | 0.00 | 0.17 | 0.09 | 95 | 1008.3 |
| 20260508105643 | 36 | 64 | 0.0 | 2.0 | 0.00 | 0.09 | 0.09 | 97 | 1009.0 |
| 20260508105140 | 36 | 59 | 2.0 | 2.0 | 0.00 | 0.09 | 0.09 | 97 | 1009.1 |
| 20260508104638 | 36 | 73 | 2.0 | 3.0 | 0.00 | 0.09 | 0.09 | 97 | 1009.1 |
| 20260508104135 | 36 | 58 | 1.0 | 2.0 | 0.00 | 0.09 | 0.09 | 97 | 1009.0 |
| 20260508103632 | 36 | 41 | 0.0 | 2.0 | 0.00 | 0.09 | 0.09 | 97 | 1009.1 |
| 20260508103129 | 36 | 64 | 2.0 | 3.0 | 0.00 | 0.09 | 0.09 | 97 | 1008.9 |
| 20260508103057 | 37 | 164 | 0.0 | 1.0 | 0.00 | 0.17 | 0.09 | 95 | 1008.1 |
| 20260508102626 | 36 | 64 | 2.0 | 2.0 | 0.00 | 0.09 | 0.09 | 97 | 1008.7 |
| 20260508102124 | 36 | 63 | 0.0 | 2.0 | 0.00 | 0.09 | 0.09 | 97 | 1008.9 |
| 20260508101621 | 36 | 46 | 1.0 | 1.0 | 0.00 | 0.09 | 0.09 | 97 | 1008.6 |
| 20260508101555 | 37 | 148 | 0.0 | 1.0 | 0.00 | 0.17 | 0.09 | 95 | 1008.0 |
| 20260508101118 | 36 | 51 | 1.0 | 2.0 | 0.00 | 0.09 | 0.09 | 97 | 1008.8 |
| 20260508100616 | 36 | 56 | 2.0 | 3.0 | 0.00 | 0.09 | 0.09 | 97 | 1008.8 |
| 20260508100114 | 36 | 51 | 2.0 | 3.0 | 0.00 | 0.09 | 0.09 | 97 | 1008.7 |
| 20260508095610 | 36 | 45 | 3.0 | 3.0 | 0.00 | 0.09 | 0.09 | 97 | 1008.7 |
| 20260508095107 | 36 | 57 | 2.0 | 3.0 | 0.00 | 0.09 | 0.09 | 97 | 1008.7 |
| 20260508094604 | 36 | 68 | 3.0 | 3.0 | 0.00 | 0.09 | 0.09 | 97 | 1008.9 |
| 20260508094556 | 37 | 144 | 0.0 | 1.0 | 0.00 | 0.17 | 0.09 | 95 | 1008.0 |
| 20260508094101 | 37 | 61 | 2.0 | 3.0 | 0.00 | 0.09 | 0.09 | 97 | 1008.9 |
| 20260508093558 | 37 | 71 | 2.0 | 3.0 | 0.00 | 0.09 | 0.09 | 97 | 1008.6 |
| 20260508093057 | 37 | 144 | 0.0 | 2.0 | 0.00 | 0.17 | 0.09 | 95 | 1007.9 |
| 20260508092552 | 37 | 65 | 3.0 | 3.0 | 0.00 | 0.09 | 0.09 | 97 | 1008.7 |
| 20260508092052 | 37 | 68 | 2.0 | 3.0 | 0.00 | 0.09 | 0.09 | 97 | 1008.6 |
| 20260508091556 | 37 | 144 | 0.0 | 1.0 | 0.00 | 0.17 | 0.09 | 95 | 1007.7 |
| 20260508091549 | 37 | 68 | 2.0 | 3.0 | 0.00 | 0.09 | 0.09 | 97 | 1008.5 |
| 20260508091045 | 37 | 58 | 2.0 | 3.0 | 0.00 | 0.09 | 0.09 | 97 | 1008.5 |
| 20260508090543 | 37 | 70 | 2.0 | 3.0 | 0.00 | 0.09 | 0.09 | 97 | 1008.6 |
| 20260508090039 | 37 | 64 | 2.0 | 2.0 | 0.00 | 0.09 | 0.09 | 97 | 1008.2 |
| 20260508085536 | 37 | 63 | 3.0 | 3.0 | 0.00 | 0.09 | 0.09 | 97 | 1008.5 |
| 20260508085033 | 37 | 51 | 2.0 | 3.0 | 0.00 | 0.09 | 0.09 | 97 | 1008.6 |
| 20260508084556 | 38 | 144 | 0.0 | 1.0 | 0.00 | 0.17 | 0.09 | 95 | 1007.6 |
| 20260508084530 | 37 | 53 | 2.0 | 2.0 | 0.00 | 0.09 | 0.09 | 97 | 1008.6 |
| 20260508084027 | 37 | 50 | 2.0 | 2.0 | 0.00 | 0.09 | 0.09 | 97 | 1008.3 |
| 20260508083524 | 37 | 53 | 2.0 | 3.0 | 0.00 | 0.09 | 0.09 | 97 | 1008.4 |
| 20260508083021 | 37 | 52 | 2.0 | 2.0 | 0.00 | 0.09 | 0.09 | 97 | 1008.4 |
| 20260508082517 | 37 | 64 | 2.0 | 3.0 | 0.00 | 0.09 | 0.09 | 96 | 1008.4 |
| 20260508082014 | 37 | 53 | 2.0 | 2.0 | 0.00 | 0.09 | 0.09 | 96 | 1008.1 |
| 20260508081556 | 37 | 144 | 0.0 | 0.0 | 0.00 | 0.17 | 0.09 | 94 | 1007.4 |
| 20260508081512 | 36 | 54 | 3.0 | 3.0 | 0.00 | 0.09 | 0.09 | 96 | 1008.4 |
| 20260508081007 | 36 | 51 | 2.0 | 2.0 | 0.00 | 0.09 | 0.09 | 96 | 1008.0 |
| 20260508080506 | 36 | 58 | 2.0 | 3.0 | 0.00 | 0.09 | 0.09 | 96 | 1008.3 |
| 20260508080056 | 37 | 144 | 0.0 | 0.0 | 0.00 | 0.17 | 0.09 | 93 | 1007.2 |
| 20260508080003 | 36 | 69 | 2.0 | 3.0 | 0.00 | 0.09 | 0.09 | 96 | 1008.1 |
| 20260508075459 | 36 | 74 | 2.0 | 2.0 | 0.00 | 0.09 | 0.09 | 96 | 1008.2 |
| 20260508074957 | 36 | 59 | 2.0 | 2.0 | 0.00 | 0.09 | 0.09 | 96 | 1008.1 |
| 20260508074556 | 37 | 144 | 0.0 | 0.0 | 0.00 | 0.17 | 0.09 | 92 | 1007.4 |
| 20260508074454 | 36 | 63 | 2.0 | 2.0 | 0.00 | 0.09 | 0.09 | 96 | 1008.1 |
| 20260508073951 | 36 | 59 | 1.0 | 2.0 | 0.00 | 0.09 | 0.09 | 96 | 1008.2 |
| 20260508073448 | 36 | 58 | 2.0 | 2.0 | 0.00 | 0.09 | 0.09 | 95 | 1008.1 |
| 20260508073057 | 38 | 144 | 0.0 | 0.0 | 0.00 | 0.17 | 0.09 | 92 | 1007.2 |
| 20260508072945 | 36 | 59 | 2.0 | 2.0 | 0.00 | 0.09 | 0.09 | 95 | 1008.3 |
| 20260508072442 | 36 | 48 | 2.0 | 3.0 | 0.00 | 0.09 | 0.09 | 95 | 1008.1 |
| 20260508071939 | 37 | 58 | 2.0 | 2.0 | 0.00 | 0.09 | 0.09 | 95 | 1008.1 |
| 20260508071556 | 38 | 144 | 0.0 | 0.0 | 0.00 | 0.17 | 0.09 | 92 | 1007.4 |
| 20260508071437 | 37 | 56 | 2.0 | 3.0 | 0.00 | 0.09 | 0.09 | 95 | 1008.3 |
| 20260508070934 | 37 | 60 | 2.0 | 2.0 | 0.00 | 0.09 | 0.09 | 95 | 1008.3 |
| 20260508070432 | 37 | 65 | 2.0 | 2.0 | 0.00 | 0.09 | 0.09 | 95 | 1008.3 |
| 20260508065930 | 37 | 61 | 2.0 | 2.0 | 0.00 | 0.09 | 0.09 | 95 | 1008.1 |
| 20260508065428 | 37 | 46 | 2.0 | 2.0 | 0.00 | 0.09 | 0.09 | 95 | 1008.1 |
| 20260508064925 | 37 | 53 | 2.0 | 3.0 | 0.00 | 0.09 | 0.09 | 95 | 1008.3 |
| 20260508064555 | 39 | 144 | 0.0 | 1.0 | 0.00 | 0.17 | 0.09 | 92 | 1007.3 |
| 20260508064422 | 37 | 49 | 1.0 | 2.0 | 0.00 | 0.09 | 0.09 | 95 | 1008.1 |
| 20260508063920 | 37 | 53 | 1.0 | 3.0 | 0.00 | 0.09 | 0.09 | 95 | 1008.1 |
| 20260508063418 | 38 | 55 | 2.0 | 3.0 | 0.00 | 0.09 | 0.09 | 95 | 1008.2 |
| 20260508063056 | 39 | 144 | 0.0 | 1.0 | 0.00 | 0.17 | 0.09 | 92 | 1007.2 |
| 20260508062915 | 38 | 62 | 2.0 | 2.0 | 0.00 | 0.09 | 0.09 | 95 | 1008.0 |
| 20260508062413 | 38 | 67 | 2.0 | 3.0 | 0.00 | 0.09 | 0.09 | 94 | 1008.1 |
| 20260508061909 | 38 | 50 | 2.0 | 3.0 | 0.00 | 0.09 | 0.09 | 94 | 1007.9 |
| 20260508061556 | 40 | 144 | 0.0 | 0.0 | 0.00 | 0.17 | 0.09 | 91 | 1007.1 |
| 20260508061407 | 38 | 53 | 2.0 | 3.0 | 0.00 | 0.09 | 0.09 | 94 | 1008.0 |
| 20260508060903 | 38 | 62 | 2.0 | 2.0 | 0.00 | 0.09 | 0.09 | 94 | 1007.9 |
| 20260508060401 | 38 | 56 | 2.0 | 3.0 | 0.00 | 0.09 | 0.09 | 94 | 1008.0 |
| 20260508060056 | 40 | 144 | 0.0 | 0.0 | 0.00 | 0.17 | 0.09 | 91 | 1007.2 |
| 20260508055901 | 39 | 51 | 2.0 | 3.0 | 0.00 | 0.09 | 0.09 | 94 | 1008.3 |
| 20260508055359 | 39 | 65 | 2.0 | 2.0 | 0.00 | 0.09 | 0.09 | 94 | 1008.1 |
| 20260508054855 | 39 | 58 | 2.0 | 2.0 | 0.00 | 0.09 | 0.09 | 94 | 1008.3 |
| 20260508054556 | 40 | 144 | 0.0 | 0.0 | 0.00 | 0.17 | 0.09 | 92 | 1007.3 |
| 20260508054352 | 39 | 65 | 2.0 | 2.0 | 0.00 | 0.09 | 0.09 | 94 | 1008.3 |
| 20260508053849 | 39 | 75 | 1.0 | 2.0 | 0.00 | 0.09 | 0.09 | 93 | 1008.3 |
| 20260508053346 | 40 | 61 | 2.0 | 2.0 | 0.00 | 0.09 | 0.09 | 93 | 1008.3 |
| 20260508053056 | 41 | 144 | 0.0 | 0.0 | 0.04 | 0.17 | 0.09 | 92 | 1007.4 |
| 20260508052844 | 40 | 62 | 2.0 | 3.0 | 0.00 | 0.09 | 0.09 | 93 | 1008.4 |
| 20260508052341 | 40 | 72 | 2.0 | 3.0 | 0.00 | 0.09 | 0.09 | 93 | 1008.3 |
| 20260508051837 | 40 | 60 | 2.0 | 2.0 | 0.00 | 0.09 | 0.09 | 93 | 1008.3 |
| 20260508051555 | 41 | 144 | 0.0 | 1.0 | 0.05 | 0.17 | 0.09 | 91 | 1007.2 |
| 20260508051332 | 40 | 64 | 2.0 | 2.0 | 0.00 | 0.09 | 0.09 | 93 | 1008.0 |
| 20260508050829 | 41 | 55 | 1.0 | 2.0 | 0.00 | 0.09 | 0.09 | 93 | 1008.4 |
| 20260508050327 | 41 | 58 | 2.0 | 2.0 | 0.02 | 0.09 | 0.09 | 93 | 1008.5 |
| 20260508050057 | 42 | 144 | 0.0 | 1.0 | 0.09 | 0.17 | 0.09 | 91 | 1007.4 |
| 20260508045822 | 41 | 67 | 2.0 | 2.0 | 0.00 | 0.08 | 0.08 | 92 | 1008.1 |
| 20260508045320 | 41 | 68 | 2.0 | 2.0 | 0.05 | 0.08 | 0.08 | 93 | 1008.4 |
| 20260508044817 | 41 | 299 | 0.0 | 2.0 | 0.12 | 0.08 | 0.08 | 93 | 1008.5 |
| 20260508044556 | 42 | 144 | 0.0 | 2.0 | 0.04 | 0.17 | 0.09 | 92 | 1007.4 |
| 20260508044314 | 41 | 88 | 2.0 | 3.0 | 0.17 | 0.07 | 0.07 | 93 | 1008.5 |
| 20260508043810 | 41 | 67 | 2.0 | 2.0 | 0.12 | 0.06 | 0.06 | 92 | 1008.8 |
| 20260508043307 | 41 | 157 | 0.0 | 3.0 | 0.07 | 0.05 | 0.05 | 92 | 1009.0 |
| 20260508043057 | 42 | 190 | 0.0 | 2.0 | 0.05 | 0.13 | 0.05 | 91 | 1007.9 |
| 20260508042804 | 41 | 82 | 1.0 | 2.0 | 0.07 | 0.04 | 0.04 | 92 | 1008.9 |
| 20260508042306 | 41 | 58 | 2.0 | 2.0 | 0.07 | 0.04 | 0.04 | 91 | 1008.8 |
| 20260508041758 | 41 | 36 | 0.0 | 2.0 | 0.09 | 0.03 | 0.03 | 91 | 1008.8 |
| 20260508041557 | 42 | 123 | 0.0 | 2.0 | 0.04 | 0.12 | 0.04 | 89 | 1007.7 |
| 20260508041254 | 42 | 73 | 0.0 | 2.0 | 0.12 | 0.02 | 0.02 | 90 | 1008.7 |
| 20260508040751 | 42 | 77 | 1.0 | 3.0 | 0.09 | 0.01 | 0.01 | 90 | 1008.7 |
| 20260508040248 | 42 | 55 | 0.0 | 2.0 | 0.09 | 0.00 | 0.00 | 89 | 1008.5 |
| 20260508040056 | 43 | 243 | 0.0 | 3.0 | 0.00 | 0.08 | 0.00 | 86 | 1007.7 |
| 20260508035746 | 42 | 55 | 0.0 | 2.0 | 0.14 | 0.07 | 0.07 | 88 | 1008.6 |
| 20260508035243 | 42 | 252 | 1.0 | 2.0 | 0.38 | 0.07 | 0.07 | 85 | 1008.6 |
| 20260508034739 | 44 | 83 | 4.0 | 4.0 | 0.31 | 0.05 | 0.05 | 81 | 1008.5 |
| 20260508034556 | 46 | 212 | 1.0 | 5.0 | 0.05 | 0.05 | 0.05 | 78 | 1007.5 |
| 20260508034237 | 46 | 263 | 4.0 | 4.0 | 0.05 | 0.01 | 0.01 | 77 | 1008.2 |
| 20260508033734 | 46 | 44 | 0.0 | 3.0 | 0.00 | 0.00 | 0.00 | 74 | 1007.7 |
| 20260508033232 | 46 | 70 | 2.0 | 3.0 | 0.00 | 0.00 | 0.00 | 77 | 1007.5 |
| 20260508033058 | 47 | 320 | 0.0 | 1.0 | 0.00 | 0.00 | 0.00 | 77 | 1006.5 |
| 20260508032729 | 46 | 28 | 0.0 | 2.0 | 0.00 | 0.00 | 0.00 | 77 | 1007.4 |
| 20260508032226 | 46 | 64 | 2.0 | 2.0 | 0.00 | 0.00 | 0.00 | 77 | 1007.2 |
| 20260508031723 | 46 | 53 | 2.0 | 2.0 | 0.00 | 0.00 | 0.00 | 75 | 1006.8 |
| 20260508031557 | 47 | 317 | 0.0 | 1.0 | 0.00 | 0.00 | 0.00 | 76 | 1005.8 |
| 20260508031219 | 47 | 56 | 1.0 | 2.0 | 0.00 | 0.00 | 0.00 | 75 | 1006.7 |
| 20260508030716 | 47 | 53 | 1.0 | 2.0 | 0.00 | 0.00 | 0.00 | 75 | 1006.7 |
| 20260508030213 | 47 | 62 | 2.0 | 2.0 | 0.00 | 0.00 | 0.00 | 75 | 1006.3 |
| 20260508030056 | 47 | 317 | 0.0 | 2.0 | 0.00 | 0.00 | 0.00 | 74 | 1005.5 |
| 20260508025709 | 46 | 51 | 0.0 | 2.0 | 0.00 | 0.00 | 0.00 | 73 | 1006.3 |
| 20260508025207 | 46 | 124 | 0.0 | 1.0 | 0.00 | 0.00 | 0.00 | 74 | 1006.2 |
| 20260508024702 | 46 | 60 | 2.0 | 2.0 | 0.00 | 0.00 | 0.00 | 74 | 1006.3 |
| 20260508024557 | 47 | 12 | 0.0 | 0.0 | 0.00 | 0.00 | 0.00 | 74 | 1005.3 |
| 20260508024200 | 46 | 57 | 1.0 | 2.0 | 0.00 | 0.00 | 0.00 | 74 | 1006.3 |
| 20260508023656 | 46 | 66 | 1.0 | 2.0 | 0.00 | 0.00 | 0.00 | 73 | 1006.3 |
| 20260508023154 | 46 | 43 | 2.0 | 3.0 | 0.00 | 0.00 | 0.00 | 73 | 1006.4 |
| 20260508022649 | 46 | 59 | 2.0 | 2.0 | 0.00 | 0.00 | 0.00 | 72 | 1006.0 |
| 20260508022147 | 46 | 63 | 1.0 | 2.0 | 0.00 | 0.00 | 0.00 | 72 | 1006.2 |
| 20260508021643 | 46 | 57 | 2.0 | 2.0 | 0.00 | 0.00 | 0.00 | 72 | 1006.1 |
| 20260508021556 | 47 | 12 | 0.0 | 1.0 | 0.00 | 0.00 | 0.00 | 73 | 1005.2 |
| 20260508021138 | 46 | 57 | 1.0 | 2.0 | 0.00 | 0.00 | 0.00 | 72 | 1006.1 |
| 20260508020636 | 46 | 58 | 2.0 | 3.0 | 0.00 | 0.00 | 0.00 | 72 | 1006.2 |
| 20260508020134 | 46 | 66 | 2.0 | 3.0 | 0.00 | 0.00 | 0.00 | 70 | 1006.2 |
| 20260508020056 | 47 | 12 | 0.0 | 1.0 | 0.00 | 0.00 | 0.00 | 70 | 1005.3 |
| 20260508015631 | 46 | 58 | 2.0 | 2.0 | 0.00 | 0.00 | 0.00 | 70 | 1006.0 |
| 20260508015128 | 46 | 65 | 2.0 | 2.0 | 0.00 | 0.00 | 0.00 | 72 | 1006.0 |
| 20260508014624 | 46 | 55 | 2.0 | 2.0 | 0.00 | 0.00 | 0.00 | 70 | 1006.0 |
| 20260508014120 | 46 | 56 | 2.0 | 2.0 | 0.00 | 0.00 | 0.00 | 71 | 1006.0 |
| 20260508013617 | 46 | 54 | 2.0 | 2.0 | 0.00 | 0.00 | 0.00 | 69 | 1005.8 |
| 20260508013114 | 46 | 66 | 0.0 | 2.0 | 0.00 | 0.00 | 0.00 | 69 | 1005.8 |
| 20260508013057 | 48 | 12 | 0.0 | 0.0 | 0.00 | 0.00 | 0.00 | 66 | 1004.7 |
| 20260508012611 | 46 | 86 | 0.0 | 2.0 | 0.00 | 0.00 | 0.00 | 67 | 1005.9 |
| 20260508012108 | 46 | 57 | 1.0 | 3.0 | 0.00 | 0.00 | 0.00 | 66 | 1005.7 |
| 20260508011607 | 47 | 70 | 2.0 | 3.0 | 0.00 | 0.00 | 0.00 | 65 | 1005.7 |
| 20260508011556 | 49 | 12 | 0.0 | 0.0 | 0.00 | 0.00 | 0.00 | 62 | 1004.7 |
| 20260508011104 | 47 | 58 | 2.0 | 2.0 | 0.00 | 0.00 | 0.00 | 64 | 1005.6 |
| 20260508010600 | 47 | 61 | 2.0 | 3.0 | 0.00 | 0.00 | 0.00 | 63 | 1005.5 |
| 20260508010058 | 48 | 49 | 2.0 | 2.0 | 0.00 | 0.00 | 0.00 | 61 | 1005.4 |
| 20260508010056 | 50 | 12 | 0.0 | 0.0 | 0.00 | 0.00 | 0.00 | 59 | 1004.6 |
| 20260508005554 | 48 | 49 | 3.0 | 3.0 | 0.00 | 0.00 | 0.00 | 60 | 1005.4 |
| 20260508005051 | 48 | 53 | 1.0 | 2.0 | 0.00 | 0.00 | 0.00 | 58 | 1005.4 |
| 20260508004547 | 49 | 65 | 2.0 | 2.0 | 0.00 | 0.00 | 0.00 | 59 | 1005.5 |
| 20260508004044 | 49 | 53 | 2.0 | 2.0 | 0.00 | 0.00 | 0.00 | 57 | 1005.1 |
| 20260508003540 | 49 | 62 | 2.0 | 2.0 | 0.00 | 0.00 | 0.00 | 54 | 1005.3 |
| 20260508003058 | 51 | 12 | 0.0 | 1.0 | 0.00 | 0.00 | 0.00 | 55 | 1004.2 |
| 20260508003038 | 50 | 55 | 2.0 | 2.0 | 0.00 | 0.00 | 0.00 | 56 | 1005.2 |
| 20260508002534 | 50 | 60 | 1.0 | 2.0 | 0.00 | 0.00 | 0.00 | 53 | 1005.1 |
| 20260508002031 | 50 | 32 | 0.0 | 2.0 | 0.00 | 0.00 | 0.00 | 52 | 1005.2 |
| 20260508001556 | 53 | 12 | 0.0 | 1.0 | 0.00 | 0.00 | 0.00 | 49 | 1004.2 |
| 20260508001527 | 51 | 63 | 1.0 | 2.0 | 0.00 | 0.00 | 0.00 | 52 | 1004.9 |
| 20260508001023 | 51 | 61 | 1.0 | 2.0 | 0.00 | 0.00 | 0.00 | 51 | 1005.3 |
| 20260508000519 | 52 | 62 | 1.0 | 2.0 | 0.00 | 0.00 | 0.00 | 52 | 1005.1 |
| 20260508000056 | 54 | 12 | 0.0 | 1.0 | 0.00 | 0.00 | 0.00 | 45 | 1004.2 |
| 20260508000017 | 52 | 70 | 0.0 | 3.0 | 0.00 | 0.00 | 0.00 | 48 | 1004.9 |
| 20260507235513 | 53 | 69 | 0.0 | 2.0 | 0.00 | 0.00 | 0.00 | 46 | 1004.8 |
| 20260507235011 | 53 | 68 | 1.0 | 2.0 | 0.00 | 0.00 | 0.00 | 45 | 1005.0 |
| 20260507234556 | 54 | 12 | 0.0 | 1.0 | 0.00 | 0.00 | 0.00 | 45 | 1003.8 |
| 20260507234507 | 53 | 53 | 2.0 | 2.0 | 0.00 | 0.00 | 0.00 | 46 | 1004.8 |
| 20260507234004 | 54 | 53 | 1.0 | 2.0 | 0.00 | 0.00 | 0.00 | 44 | 1004.8 |
| 20260507233500 | 54 | 34 | 1.0 | 2.0 | 0.00 | 0.00 | 0.00 | 43 | 1004.8 |
| 20260507233056 | 55 | 12 | 0.0 | 2.0 | 0.00 | 0.00 | 0.00 | 43 | 1003.7 |
| 20260507232959 | 54 | 42 | 2.0 | 2.0 | 0.00 | 0.00 | 0.00 | 43 | 1004.9 |
| 20260507232455 | 54 | 66 | 2.0 | 2.0 | 0.00 | 0.00 | 0.00 | 43 | 1004.7 |
| 20260507231953 | 54 | 46 | 1.0 | 2.0 | 0.00 | 0.00 | 0.00 | 44 | 1004.7 |
| 20260507231556 | 55 | 28 | 0.0 | 1.0 | 0.00 | 0.00 | 0.00 | 41 | 1003.7 |
| 20260507231448 | 54 | 59 | 3.0 | 4.0 | 0.00 | 0.00 | 0.00 | 42 | 1004.7 |
| 20260507230946 | 55 | 60 | 2.0 | 3.0 | 0.00 | 0.00 | 0.00 | 41 | 1004.5 |
| 20260507230443 | 55 | 66 | 2.0 | 3.0 | 0.00 | 0.00 | 0.00 | 41 | 1004.8 |
| 20260507230055 | 55 | 355 | 0.0 | 2.0 | 0.00 | 0.00 | 0.00 | 40 | 1004.0 |
| 20260507225938 | 55 | 72 | 2.0 | 3.0 | 0.00 | 0.00 | 0.00 | 41 | 1004.9 |
| 20260507225434 | 55 | 77 | 2.0 | 3.0 | 0.00 | 0.00 | 0.00 | 40 | 1004.7 |
| 20260507224931 | 55 | 78 | 2.0 | 3.0 | 0.00 | 0.00 | 0.00 | 38 | 1004.7 |
| 20260507224556 | 56 | 33 | 1.0 | 2.0 | 0.00 | 0.00 | 0.00 | 38 | 1003.9 |
| 20260507224426 | 55 | 41 | 3.0 | 4.0 | 0.00 | 0.00 | 0.00 | 40 | 1004.7 |
| 20260507223924 | 55 | 57 | 0.0 | 2.0 | 0.00 | 0.00 | 0.00 | 41 | 1004.7 |
| 20260507223419 | 55 | 58 | 2.0 | 2.0 | 0.00 | 0.00 | 0.00 | 40 | 1004.7 |
| 20260507223056 | 56 | 75 | 0.0 | 1.0 | 0.00 | 0.00 | 0.00 | 41 | 1003.8 |
| 20260507222917 | 56 | 63 | 2.0 | 3.0 | 0.00 | 0.00 | 0.00 | 40 | 1004.7 |
| 20260507222413 | 56 | 42 | 2.0 | 3.0 | 0.00 | 0.00 | 0.00 | 39 | 1004.6 |
| 20260507221910 | 56 | 84 | 2.0 | 3.0 | 0.00 | 0.00 | 0.00 | 38 | 1004.8 |
| 20260507221407 | 56 | 66 | 2.0 | 3.0 | 0.00 | 0.00 | 0.00 | 39 | 1004.7 |
| 20260507220902 | 56 | 48 | 2.0 | 3.0 | 0.00 | 0.00 | 0.00 | 38 | 1004.5 |
| 20260507220401 | 56 | 75 | 2.0 | 2.0 | 0.00 | 0.00 | 0.00 | 40 | 1004.6 |
| 20260507220056 | 57 | 229 | 0.0 | 2.0 | 0.00 | 0.00 | 0.00 | 43 | 1003.7 |
| 20260507215857 | 56 | 53 | 2.0 | 3.0 | 0.00 | 0.00 | 0.00 | 42 | 1004.3 |
| 20260507215354 | 57 | 283 | 0.0 | 1.0 | 0.00 | 0.00 | 0.00 | 41 | 1004.5 |
| 20260507214851 | 56 | 63 | 1.0 | 2.0 | 0.00 | 0.00 | 0.00 | 42 | 1004.6 |
| 20260507214556 | 57 | 229 | 0.0 | 3.0 | 0.00 | 0.00 | 0.00 | 43 | 1003.8 |
| 20260507214349 | 57 | 65 | 0.0 | 2.0 | 0.00 | 0.00 | 0.00 | 39 | 1004.9 |
| 20260507213844 | 57 | 223 | 2.0 | 2.0 | 0.00 | 0.00 | 0.00 | 37 | 1004.7 |
| 20260507213341 | 57 | 52 | 2.0 | 2.0 | 0.00 | 0.00 | 0.00 | 43 | 1004.8 |
| 20260507212837 | 57 | 85 | 2.0 | 4.0 | 0.00 | 0.00 | 0.00 | 38 | 1004.9 |
| 20260507212333 | 57 | 82 | 2.0 | 2.0 | 0.00 | 0.00 | 0.00 | 43 | 1004.8 |
| 20260507211830 | 57 | 269 | 0.0 | 3.0 | 0.00 | 0.00 | 0.00 | 40 | 1004.4 |
| 20260507211556 | 57 | 237 | 2.0 | 5.0 | 0.00 | 0.00 | 0.00 | 43 | 1003.8 |
| 20260507211327 | 57 | 228 | 2.0 | 3.0 | 0.00 | 0.00 | 0.00 | 40 | 1004.7 |
| 20260507210824 | 57 | 84 | 3.0 | 4.0 | 0.00 | 0.00 | 0.00 | 36 | 1004.8 |
| 20260507210321 | 57 | 32 | 0.0 | 6.0 | 0.00 | 0.00 | 0.00 | 39 | 1004.8 |
| 20260507210057 | 57 | 69 | 1.0 | 3.0 | 0.00 | 0.01 | 0.00 | 36 | 1003.7 |
| 20260507205817 | 57 | 74 | 3.0 | 4.0 | 0.00 | 0.00 | 0.00 | 39 | 1004.8 |
| 20260507205314 | 56 | 38 | 1.0 | 3.0 | 0.00 | 0.00 | 0.00 | 43 | 1004.7 |
| 20260507204810 | 57 | 61 | 1.0 | 4.0 | 0.00 | 0.00 | 0.00 | 41 | 1004.6 |
| 20260507204557 | 57 | 15 | 0.0 | 3.0 | 0.00 | 0.01 | 0.00 | 37 | 1003.7 |
| 20260507204308 | 57 | 62 | 0.0 | 3.0 | 0.00 | 0.00 | 0.00 | 40 | 1004.6 |
| 20260507203806 | 57 | 73 | 3.0 | 4.0 | 0.00 | 0.00 | 0.00 | 38 | 1004.6 |
| 20260507203303 | 57 | 29 | 1.0 | 2.0 | 0.00 | 0.00 | 0.00 | 39 | 1004.6 |
| 20260507203056 | 58 | 128 | 1.0 | 3.0 | 0.00 | 0.02 | 0.00 | 39 | 1003.7 |